YAOGAN 4 DEB, 38264

Orbit data source: Space-Track

YAOGAN 4 DEB, 38264 is space debris in SSO originally from a launch on Mon, 01 Dec 2008 UTC launched from the Jiuquan Satellite Launch Center, China (JSC). Debris objects in space refer to the collection of defunct objects orbiting the Earth. Examples of debris include non-operational satellites, rocket bodies, and fragments generated from explosions, collisions, or faulty payload assembly.

Loading next visibility...
Identifier
38264, 2008-061C
Orbit
SSO
Country
Flag of CNCN / PRC
Related business
Manufacturer
Unknown
Mission
Spacecraft
Bus & Motor
Unknown
Mass
Unknown
Launch date (UTC)
2008-12-01 (18 years ago)
Launch vehicle
Unknown
Launch site
Jiuquan Satellite Launch Center, China (JSC)
Object type
Payload
Rocket body
Debris
Shape & HBR
Unknown shape, 0.1 m
Radar Cross Section
Small (<0.1 m²)

Expand to show TLE details & history
Last TLE update: 2 days ago

TLE from 2 days ago
0 YAOGAN 4 DEB
1 38264U 08061C   26171.35225757  .00001096  00000-0  33797-3 0  9999
2 38264  97.8568  10.8811 0235842  58.3486 118.9540 14.28327694904844
Epoch: 2026-06-20T08:27Z
TLE epoch observation values (Epoch: 2026-06-20T08:27:15.054Z)
Latitude
0.24812°
Longitude
155.53432°
Altitude
885.195 km
Speed
7.366 km/s
True Right ascension
12h 43m 39s
True Declination
0° 14' 48"
Sunlit
Object was in daylight at epoch
Visualization orbit readout
Latitude
Unknown
Longitude
Unknown
Altitude
Unknown
Speed
Unknown
Apparent Right ascension
Unknown
Apparent Declination
Unknown
Sunlit
N/A
Visualization observer readout
Local Sidereal Time
00:39:50
Azimuth
Unknown
Elevation
Unknown
Doppler factor
Unknown
Orbital elements
Apogee altitude
963.591 km
Perigee altitude
625.273 km
Semi-major axis
7,172.569 km
Eccentricity
0.02358
Inclination
97.8568°
RAAN
10.8811°
Arg. of periapsis
58.3486°
True anomaly
121.28482°
Mean anomaly
118.954°
Eccentric anomaly
120.12279°
Mean motion
3.57298 °/min
Orbital period
100.76 mins
BSTAR
0.00033797
Loading maneuver chart data...
Computing Atmospheric mass density...
Loading historical data...
Loading historical data...
Loading historical data...
Loading historical data...
Loading historical data...
Loading historical data...
Loading historical data...
Other satellites on launch #61 in the year 2008 (2008-12-01 UTC)

Documentation

Showing up to 5 results
|